Tracking 29489 objects as of 10-Sep-2024
HD Live streaming from Space Station
objects crossing your sky now

FENGYUN 1C DEB

Track FENGYUN 1C DEB now!
10-day predictions


NORAD ID: 31292
Int'l Code: 1999-025BPA
Perigee: 613.7 km
Apogee: 651.6 km
Inclination: 99.0 °
Period: 97.2 minutes
Semi major axis: 7003 km
RCS: 0.0053 m2 (small)
Launch date: May 10, 1999
Source: People's Republic of China (PRC)
Launch site: Taiyaun Space Center, China (TSC)

Note: This is SATELLITE DEBRIS
Your satellite tracking list
Your tracking list is empty




NASA's NSSDC Master Catalog

Two Line Element Set (TLE):
1 31292U 99025BPA 24253.45211291  .00237127  00000-0  29268-1 0  9993
2 31292  99.0468  75.6323 0027123 260.6611  99.1530 14.81207769900234
Source of the keplerian elements: AFSPC